Retour au catalogue

STARLINK-30102

ActifCommunicationsVLEO
NORAD 57434·PAYLOAD·🇺🇸 United States

Lancé Jul 24, 2023 depuis Cape Canaveral Space Force Station

Loading…

Prochains Passages (prochaines 24 heures)

TLE

FraisSource: CelesTrak SupGP

Époque: Sep 14, 2026, 20:40 UTC

1 57434C 23105E   26257.86159722  .00010714  00000+0  38821-3 0  2570
2 57434  42.9995 271.5621 0001471 265.9400  56.6485 15.27560866    17

Suivez STARLINK-30102 en temps réel avec AllMySat

Download on the App Store